Location: Caltech
(34.1382°N, 118.1253°W)
Time: 09:57:42
(UTC-07:00)

Transit 2A - Visible Passes

Search period start: 23 May 2017 00:00
Search period end: 02 June 2017 00:00
Orbit: 601 x 959 km, 66.7° (Epoch: 22 May)

Date Brightness Start Highest point End Pass type
(mag) Time Alt. Az. Time Alt. Az. Time Alt. Az.
23 May 8.6 00:14:43 10° NNE 00:16:13 11° NE 00:16:54 11° ENE visible
23 May 7.4 01:54:47 10° NNW 01:57:21 31° NNW 01:57:21 31° NNW visible
24 May 7.4 01:20:52 10° NNW 01:23:44 34° N 01:23:44 34° N visible
25 May 7.6 00:47:04 10° N 00:50:12 31° NNE 00:50:12 31° NNE visible
26 May 7.8 00:13:27 10° N 00:16:44 25° NE 00:16:44 25° NE visible
26 May 8.2 01:56:11 10° NW 01:57:12 15° NW 01:57:12 15° NW visible
26 May 8.0 23:40:02 10° N 23:43:18 18° NE 23:43:18 18° NE visible
27 May 7.9 01:21:54 10° NW 01:23:47 23° NW 01:23:47 23° NW visible
27 May 8.3 23:07:08 10° NNE 23:09:20 13° NE 23:09:56 12° ENE visible
28 May 7.5 00:47:47 10° NNW 00:50:24 32° NNW 00:50:24 32° NNW visible
29 May 7.2 00:13:50 10° NNW 00:17:05 39° N 00:17:05 39° N visible
29 May 7.1 23:40:01 10° NNW 23:43:48 38° NNE 23:43:48 38° NNE visible
30 May 8.5 01:23:54 10° WNW 01:24:16 11° WNW 01:24:16 11° WNW visible
30 May 7.3 23:06:20 10° N 23:10:33 30° NE 23:10:33 30° NE visible
31 May 8.1 00:49:17 10° NW 00:51:02 19° WNW 00:51:02 19° WNW visible
31 May 7.7 22:32:50 10° N 22:36:41 21° NE 22:37:20 20° ENE visible
01 Jun 7.5 00:14:57 10° NW 00:17:49 31° WNW 00:17:49 31° WNW visible
01 Jun 8.1 21:59:44 10° NNE 22:02:28 14° NE 22:04:10 12° ENE visible
01 Jun 6.7 23:40:48 10° NNW 23:44:40 51° NW 23:44:40 51° NW visible
